Weather History for Limon, CO

Change the Weather History Date:

Sunday, February 17, 2013

  Actual Average Record
Temperature  
Mean Temperature 36 °F -  
Max Temperature 60 °F - 68 °F (1997)
Min Temperature 11 °F - -7 °F (2006)
Degree Days  
Heating Degree Days 29    
Month to date heating degree days 600  
Cooling Degree Days 0    
Month to date cooling degree days 0  
Moisture  
Dew Point 5 °F    
Average Humidity 42    
Maximum Humidity 84    
Minimum Humidity 5    
Precipitation  
Precipitation 0.00 in - 0.01 in (2008)
Month to date precipitation 0.02  
Year to date precipitation 0.31  
Sea Level Pressure  
Sea Level Pressure 29.75 in    
Wind  
Wind Speed 10 mph (North)    
Max Wind Speed 35 mph    
Max Gust Speed 44 mph    
Visibility 10 miles    
Events      
T = Trace of Precipitation, MM = Missing Value Source: NWS Daily Summary

Daily Weather History Graph

Daily Weather History Graph

Search for Another Location

Airport:

Trip Planner

Search our weather history database for the weather conditions in past years. The results will help you decide how hot, cold, wet, or windy it might be!

Date:

Astronomy

Feb. 17, 2013 Rise Set
Actual Time 6:43 AM MST 5:34 PM MST
Civil Twilight 6:16 AM MST 6:01 PM MST
Nautical Twilight 5:44 AM MST 6:32 PM MST
Astronomical Twilight 5:13 AM MST 7:04 PM MST
Moon 10:41 AM MST 12:29 AM MST
Length of Visible Light 11h 45m
Length of Day
10h 50m
Waxing Crescent, 49% of the Moon is Illuminated
Feb 17
Waxing Crescent
Feb 17
First Quarter
Feb 25
Full
Mar 4
Last Quarter
Mar 11
New

Hourly Weather History & Observations

Time (MST) Temp. Windchill Dew Point Humidity Pressure Visibility Wind Dir Wind Speed Gust Speed Precip Events Conditions
12:55 AM 12.0 °F 5.9 °F 7.0 °F 80% 30.01 in 10.0 mi North 3.5 mph - N/A   Clear
1:55 AM 12.0 °F 1.5 °F 8.1 °F 84% 29.99 in 10.0 mi North 6.9 mph - N/A   Clear
2:55 AM 10.9 °F -0.8 °F 7.0 °F 84% 29.96 in 10.0 mi North 8.1 mph - N/A   Clear
3:55 AM 15.1 °F 5.2 °F 8.1 °F 74% 29.92 in 10.0 mi North 6.9 mph - N/A   Clear
4:55 AM 14.0 °F 6.5 °F 8.1 °F 77% 29.92 in 10.0 mi NNE 4.6 mph - N/A   Clear
5:55 AM 16.0 °F 8.8 °F 9.0 °F 74% 29.96 in 10.0 mi North 4.6 mph - N/A   Clear
6:55 AM 15.1 °F 6.4 °F 9.0 °F 77% 29.97 in 10.0 mi North 5.8 mph - N/A   Clear
7:55 AM 24.1 °F 18.2 °F 16.0 °F 71% 29.94 in 10.0 mi North 4.6 mph - N/A   Clear
8:55 AM 32.0 °F - 17.1 °F 54% 29.91 in 10.0 mi Calm Calm - N/A   Clear
9:55 AM 44.1 °F - 12.0 °F 27% 29.82 in 10.0 mi Calm Calm - N/A   Clear
10:55 AM 53.1 °F - 3.9 °F 14% 29.75 in 10.0 mi SE 9.2 mph - N/A   Clear
11:55 AM 57.9 °F - -4.0 °F 8% 29.70 in 10.0 mi South 12.7 mph - N/A   Clear
12:55 PM 59.0 °F - -14.1 °F 5% 29.64 in 10.0 mi SW 18.4 mph 21.9 mph N/A   Clear
1:55 PM 59.0 °F - -11.0 °F 6% 29.60 in 10.0 mi South 15.0 mph 19.6 mph N/A   Clear
2:55 PM 57.9 °F - -7.1 °F 7% 29.58 in 10.0 mi South 18.4 mph 25.3 mph N/A   Clear
3:55 PM 57.0 °F - -13.0 °F 5% 29.55 in 10.0 mi South 19.6 mph - N/A   Clear
4:55 PM 54.0 °F - -11.0 °F 7% 29.55 in 10.0 mi SSW 15.0 mph - N/A   Clear
5:55 PM 50.0 °F - -8.0 °F 9% 29.58 in 10.0 mi West 4.6 mph 16.1 mph N/A   Clear
6:29 PM 48.2 °F - -2.2 °F 12% 29.58 in 10.0 mi NW 15.0 mph - N/A   Clear
6:55 PM 48.0 °F - -2.0 °F 13% 29.59 in 10.0 mi NNW 18.4 mph 26.5 mph N/A   Clear
7:55 PM 41.0 °F 30.7 °F 12.0 °F 31% 29.63 in 10.0 mi North 25.3 mph 34.5 mph N/A   Clear
8:55 PM 36.0 °F 23.5 °F 14.0 °F 41% 29.64 in 10.0 mi North 27.6 mph 38.0 mph N/A   Clear
9:55 PM 34.0 °F 21.0 °F 18.0 °F 52% 29.62 in 10.0 mi North 26.5 mph 42.6 mph N/A   Clear
10:55 PM 30.9 °F 17.2 °F 21.9 °F 69% 29.64 in 10.0 mi North 25.3 mph 36.8 mph N/A   Clear
11:55 PM 28.9 °F 15.4 °F 19.0 °F 67% 29.66 in 10.0 mi North 21.9 mph 28.8 mph N/A   Clear